#timestamp,LO_Frequency,Hit,StdDev 
1703901615.1,286047001.5,N
1703901635.8,286047003.9,N
1703901655.7,286047004.2,N
1703901675.5,286046998.8,N
1703901695.4,286047003.9,N
1703901715.2,286047002.4,N
1703901735.0,286046998.0,N
1703901735.9,286046998.0,N
1703901755.8,286046990.9,Y
1703901775.6,286046994.0,P
1703901795.4,286046994.9,N
1703901815.3,286047001.9,N
1703901835.1,286047003.7,N
1703901855.9,286047005.5,N
1703901875.7,286047000.1,N
1703901895.5,286047001.0,N
1703901915.4,286047000.7,N
1703901935.2,286046999.3,N
1703901955.0,286046996.7,N
1703901956.0,286046996.7,N
1703901975.8,286046996.4,N
1703901995.6,286046994.0,N
1703902015.5,286046994.6,N
1703902035.3,286046994.1,N
1703902055.1,286046996.1,N
1703902075.9,286046997.7,N
1703902095.7,286046995.6,N
1703902115.6,286046992.6,N
1703902135.4,286046993.3,N
1703902155.2,286046997.7,N
1703902175.1,286046998.0,N
1703902176.0,286046998.0,N
1703902195.8,286046996.5,N
1703902215.6,286046999.0,N
1703902235.5,286047000.3,N
1703902255.3,286047005.6,N
1703902275.2,286047004.2,N
1703902295.9,286047005.1,N
1703902315.7,286047007.4,N
1703902335.6,286047006.1,N
1703902355.4,286047007.1,N
1703902375.2,286047004.3,N
1703902395.1,286047007.3,N
1703902396.0,286047007.3,N
1703902415.8,286047008.1,N
1703902435.7,286047008.1,N
1703902455.5,286047007.5,N
1703902475.3,286047002.5,N
1703902495.2,286046998.6,N
1703902515.0,286046998.1,N
1703902515.9,286046998.1,N
1703902535.7,286046997.3,N
1703902555.6,286047001.2,N
1703902575.4,286047002.8,N
1703902595.3,286047001.5,N
1703902615.1,286047002.8,N
1703902635.8,286047000.0,N
1703902655.7,286047003.5,N
1703902675.5,286047002.0,N
1703902695.4,286047001.6,N
1703902715.2,286047001.4,N
1703902735.0,286047004.9,N
1703902735.9,286047004.9,N
1703902755.8,286047013.9,Y
1703902775.6,286047017.0,P
1703902795.5,286047015.4,N
1703902815.3,286047014.5,N
1703902835.1,286047020.1,Y
1703902855.9,286047004.6,P
1703902875.7,286047003.5,N
1703902895.6,286046999.2,N
1703902915.4,286046998.6,N
1703902935.2,286046999.3,N
1703902955.1,286046999.5,N
1703902956.0,286046999.5,N
1703902975.8,286046997.6,N
1703902995.6,286046993.4,N
1703903015.5,286046996.6,N
1703903035.3,286046999.0,N
1703903055.1,286046997.5,N
1703903075.9,286046994.3,N
1703903095.7,286046993.1,N
1703903115.6,286046996.0,N
1703903135.4,286046999.2,N
1703903155.2,286046998.4,N
1703903175.1,286046999.5,N
1703903176.0,286046999.5,N
1703903195.8,286047002.3,N
1703903215.7,286047002.5,N
1703903235.5,286047000.9,N
1703903255.3,286046999.0,N
1703903275.2,286047001.5,N
1703903295.9,286047002.1,N
1703903315.7,286047003.5,N
1703903335.6,286047003.2,N
1703903355.4,286047006.1,N
1703903375.3,286047011.8,Y
1703903395.1,286047010.9,P
1703903396.0,286047010.9,N
1703903415.8,286047012.7,N
1703903435.7,286047016.3,Y
1703903455.5,286047008.4,P
1703903475.4,286047007.1,P
1703903495.2,286047003.9,P
1703903515.0,286047004.5,N
1703903515.9,286047004.5,N
1703903535.8,286047002.6,N
1703903555.6,286047000.8,N
1703903575.5,286047004.2,N
1703903595.3,286047000.9,N
1703903615.1,286046999.2,N
1703903635.9,286047004.2,N
1703903655.7,286047005.5,N
1703903675.5,286047001.8,N
1703903695.4,286047001.6,N
1703903715.2,286047000.3,N
1703903735.0,286047003.1,N
1703903736.0,286047003.1,N
1703903755.8,286047003.7,N
1703903775.6,286046998.6,N
1703903795.5,286046999.6,N
1703903815.3,286047000.4,N
1703903835.1,286047001.5,N
1703903855.9,286047003.6,N
1703903875.7,286047000.7,N
1703903895.5,286047002.7,N
1703903915.4,286046997.2,N
1703903935.2,286046992.1,N
1703903955.1,286046993.2,N
1703903956.0,286046993.2,N
1703903975.8,286046989.9,N
1703903995.6,286046984.0,Y
1703904015.5,286046987.2,P
1703904035.3,286046992.0,N
1703904055.2,286046989.2,N
1703904075.9,286046987.5,N
1703904095.7,286046990.6,N
1703904115.6,286046991.4,N
1703904135.4,286046989.8,N
1703904155.3,286046986.0,Y
1703904175.1,286046991.7,P
1703904176.0,286046986.3,P
1703904195.8,286046990.1,P
1703904215.7,286046996.3,N
1703904235.5,286047000.6,N
1703904255.3,286047003.7,N
1703904275.2,286047003.5,N
1703904295.0,286047004.6,N
1703904295.9,286047004.6,N
1703904315.8,286047005.3,N
1703904335.6,286047004.1,N
1703904355.4,286046999.8,N
1703904375.3,286047003.6,N
1703904395.1,286047005.6,N
1703904415.9,286047004.5,N
1703904435.7,286047003.3,N
1703904455.5,286047001.9,N
1703904475.4,286046998.7,N
1703904495.2,286046997.9,N
1703904515.0,286046996.4,N
1703904516.0,286046996.4,N
1703904535.8,286046997.2,N
1703904555.6,286046999.0,N
1703904575.5,286047001.1,N
1703904595.3,286047004.3,N
1703904615.1,286047004.1,N
1703904635.9,286047007.1,N
1703904655.7,286047009.1,N
1703904675.6,286047006.6,N
1703904695.4,286047005.2,N
1703904715.2,286047001.1,N
1703904735.1,286046993.5,N
1703904736.0,286046993.5,N
1703904755.8,286046996.3,N
1703904775.6,286047000.3,N
1703904795.5,286047003.0,N
1703904815.3,286047014.0,Y
1703904835.2,286047004.6,P
1703904855.9,286047009.9,P
1703904875.7,286047006.6,N
1703904895.6,286047008.3,N
1703904915.4,286047007.6,N
1703904935.2,286047005.9,N
1703904955.1,286047005.1,N
1703904956.0,286047005.1,N
1703904975.8,286047004.0,N
1703904995.7,286047003.8,N
1703905015.5,286047005.4,N
1703905035.3,286047003.5,N
1703905055.2,286047003.6,N
1703905075.0,286047000.4,N
1703905075.9,286047000.4,N
1703905095.8,286046997.1,N
1703905115.6,286046994.4,N
1703905135.4,286046993.0,N
1703905155.3,286046993.3,N
1703905175.1,286046996.7,N
1703905195.8,286046997.1,N
